Zurück zum Katalog

STARLINK-4297

AktivKommunikationVLEO
NORAD 53543·PAYLOAD·🇺🇸 United States

Gestartet Aug 19, 2022 von Cape Canaveral Space Force Station

Loading…

Nächste Überflüge (nächste 24 Stunden)

TLE

AktuellSource: CelesTrak SupGP

Epoche: Sep 15, 2026, 02:10 UTC

1 53543C 22101S   26258.09076389  .00005809  00000+0  17162-3 0  2580
2 53543  53.1573 278.7076 0001314  93.8509 197.1981 15.34390497    18

Verfolge STARLINK-4297 in Echtzeit mit AllMySat

Download on the App Store